Regional Weather Roundup
Issued by NWS

Home | Current Version | Previous Version | Graphics & Text | Print | Product List | Glossary On
Versions: 1 2 3 4 5 6 7 8 9 10 11 12 13 14 15 16 17 18 19 20 21 22 23 24 25 26 27
000
ASUS43 KDMX 190807
RWRIA

WEATHER ROUNDUP FOR IOWA
NATIONAL WEATHER SERVICE DES MOINES IA
300 AM CDT SAT APR 19 2014

NOTE: "FAIR" INDICATES FEW OR NO CLOUDS BELOW 12,000 FEET WITH NO
SIGNIFICANT WEATHER AND/OR OBSTRUCTIONS TO VISIBILITY.

* - THESE STATIONS ARE NOT NWS STATIONS...THUS NOT UNDER NWS
QUALITY CONTROL.  THEY ALSO DO NOT REPORT WEATHER SUCH
AS PRECIPITATION OR FOG.

IAZ001>003-012>014-020>022-031>034-043>046-190900-
   NORTHWEST IOWA

CITY           SKY/WX    TMP DP  RH WIND       PRES   REMARKS
CARROLL *      CLOUDY    50  39  66 SE14      30.07F
CHEROKEE *     MOCLDY    50  39  66 S15       30.02F
DENISON *      PTCLDY    54  39  58 S18G29    30.03F
LE MARS *      CLEAR     57  39  51 S22       29.98S
ORANGE CITY *  CLEAR     55  37  50 S15       29.98S
SHELDON *      CLEAR     52  39  62 S21G29    29.97F
SIOUX CITY     PTCLDY    54  40  59 SE16      29.99S
SPENCER        MOCLDY    50  37  61 S22G29    30.02F
STORM LAKE *   CLEAR     50  39  66 S18G25    30.05S
$$

IAZ055>058-069>071-079>083-090>094-190900-
   SOUTHWEST IOWA

CITY           SKY/WX    TMP DP  RH WIND       PRES   REMARKS
ATLANTIC *     CLOUDY    54  41  62 S17G28    30.08F
AUDUBON *      CLEAR     52  37  58 S9        30.09F
CLARINDA *     PTCLDY    50  41  71 S7        30.13F
COUNCIL BLFS * CLOUDY    54  43  66 S20G26    30.05F
CRESTON *      CLEAR     48  41  76 S13       30.14F
HARLAN  *      CLEAR     52  41  66 S13G18    30.10F
LAMONI         PTCLDY    51  38  60 SE10      30.17F
RED OAK *      CLEAR     54  43  66 S12       30.10F
SHENANDOAH *   MOCLDY    54  43  66 SE17      30.11F
$$

IAZ047>049-059>061-072>074-084-190900-
   CENTRAL IOWA

CITY           SKY/WX    TMP DP  RH WIND       PRES   REMARKS
AMES           MOCLDY    47  32  56 SE10      30.16F
ANKENY *       CLEAR     50  32  50 SE8       30.17S
CHARITON *     MOCLDY    50  34  53 SE9       30.17F
DES MOINES     MOCLDY    51  34  52 SE9       30.17F
GRINNELL*      CLOUDY    46  32  57 E9        30.21R
KNOXVILLE *    CLEAR     52  30  43 SE12      30.18S
MARSHALLTOWN   CLOUDY    49  32  52 SE16      30.18F
NEWTON *       CLEAR     45  30  57 SE10      30.20S
PELLA *        CLOUDY    50  32  50 SE9       30.21S
PERRY *          N/A     46  36  66 SE10      30.13F
$$

IAZ004>006-015-016-023>025-035-036-190900-
   NORTH CENTRAL IOWA

CITY           SKY/WX    TMP DP  RH WIND       PRES   REMARKS
ALGONA *       PTCLDY    48  32  53 SE22G31   30.09S
CLARION *      CLEAR     45  30  57 SE18      30.13F
ESTHERVILLE    MOCLDY    45  35  68 SE18      30.04F
FORT DODGE *   MOCLDY    52  34  50 SE13G18   30.11F
MASON CITY     MOCLDY    42  33  70 SE13      30.18S
FOREST CITY *  CLEAR     45  32  61 SE17G23   30.13F
IOWA FALLS *     N/A     45  32  61 SE9       30.18F
$$

IAZ007>011-017>019-026>030-037>042-050>054-066-190900-
   NORTHEAST IOWA

CITY           SKY/WX    TMP DP  RH WIND       PRES   REMARKS
CEDAR RAPIDS   MOCLDY    42  36  79 E15       30.25S
CHARLES CITY * CLEAR     45  32  61 SE18G24   30.22R
CLINTON *      CLEAR     37  28  70 E12       30.35R WCI  30
DECORAH *      PTCLDY    41  34  75 SE13G21   30.26R
DUBUQUE        CLEAR     37  30  75 SE7       30.31S WCI  32
MONTICELLO *   CLEAR     39  32  75 SE17      30.30R WCI  30
OELWEIN *      CLEAR    N/A N/A N/A SE21G29   30.25S
WATERLOO       MOCLDY    45  35  68 SE18G26   30.22R
$$

IAZ064-065-067-068-078-190900-
   EAST CENTRAL IOWA

CITY           SKY/WX    TMP DP  RH WIND       PRES   REMARKS
DAVENPORT      CLEAR     39  30  70 E16       30.33S WCI  30
IOWA CITY      MOCLDY    44  37  76 E9        30.29R
MT. PLEASANT * CLEAR     46  36  66 E12       30.25F
MUSCATINE *    CLEAR     45  34  65 SE13      30.29S
QUAD CITIES    CLEAR     38  31  76 E9        30.32S WCI  31
$$

IAZ062-063-075>077-085>089-095>099-190900-
   SOUTHEAST IOWA

CITY           SKY/WX    TMP DP  RH WIND       PRES   REMARKS
BURLINGTON     CLEAR     46  38  73 E13       30.27R
FAIRFIELD *    CLEAR     45  30  57 SE9       30.23F
FORT MADISON * CLEAR     46  39  76 E12       30.27R
KEOKUK *       CLEAR     48  37  66 E15       30.25R
OSKALOOSA *      N/A     46  32  57 SE12      30.22S
CENTERVILLE *  CLEAR     46  32  57 SE8       30.21F
OTTUMWA        MOCLDY    51  28  41 SE14      30.21S
WASHINGTON *   CLEAR     45  37  76 SE13      30.25F
$$

ABBREVIATIONS USED IN REMARKS
   TC - TEMPERATURES IN CELSIUS
  WCI - WIND CHILL INDEX
   HX - HEAT INDEX
  VSB - VISIBILITY
$$




USA.gov is the U.S. government's official web portal to all federal, state and local government web resources and services.